Date,TemperatureHighF,TemperatureAvgF,TemperatureLowF,DewpointHighF,DewpointAvgF,DewpointLowF,HumidityHigh,HumidityAvg,HumidityLow,PressureMaxIn,PressureMinIn,WindSpeedMaxMPH,WindSpeedAvgMPH,GustSpeedMaxMPH,PrecipitationSumIn
2013-1-1,52,48,40,51,47,38,98,95,79,30.14,29.99,10,2,0,1.32
2013-1-2,40,36,34,39,34,32,95,93,90,30.25,30.11,7,3,0,0.05
2013-1-3,44,35,28,32,29,26,94,81,53,30.44,30.25,7,2,0,0.00
2013-1-4,47,35,27,29,26,24,93,74,44,30.51,30.41,7,1,0,0.00
2013-1-5,49,37,26,40,31,24,96,79,45,30.47,30.30,3,0,0,0.08
2013-1-6,49,41,34,41,38,32,97,88,68,30.37,30.22,12,2,0,0.09
2013-1-7,54,38,28,35,31,25,93,78,46,30.45,30.29,4,2,0,0.00
2013-1-8,59,47,34,46,39,31,92,75,57,30.39,30.25,9,4,0,0.00
2013-1-9,59,55,51,58,53,46,97,93,81,30.40,30.30,8,2,0,0.27
2013-1-10,67,62,58,62,59,55,94,91,85,30.35,30.02,16,7,0,0.28
2013-1-11,69,66,63,65,63,61,98,90,82,30.10,30.01,8,4,0,0.06
2013-1-12,72,68,66,67,65,60,97,88,78,30.05,29.90,6,3,0,0.08
2013-1-13,70,62,41,66,59,39,97,90,78,30.15,29.85,11,5,0,1.07
2013-1-14,41,37,33,39,35,31,96,93,89,30.31,30.15,11,4,0,1.44
2013-1-15,41,38,35,40,36,34,97,96,94,30.20,29.99,11,2,0,1.39
2013-1-16,39,38,37,38,37,35,97,96,94,30.14,30.00,6,2,0,0.48
2013-1-17,41,37,33,39,34,30,96,90,77,30.44,29.96,12,5,0,0.34
2013-1-18,35,32,28,33,30,27,96,93,89,30.60,30.44,4,1,0,0.01
2013-1-19,53,43,36,36,34,32,90,72,46,30.44,30.25,3,1,0,0.00
2013-1-20,60,44,31,41,36,30,97,76,46,30.28,30.15,5,1,0,0.00
2013-1-21,46,35,30,32,27,20,96,77,35,30.30,30.15,8,2,0,0.00
2013-1-22,39,33,25,18,16,14,66,49,39,30.45,30.31,5,3,0,0.00
2013-1-23,56,52,46,40,36,28,69,56,44,30.39,30.21,7,3,0,0.00
2013-1-24,47,41,33,40,26,17,85,57,38,30.42,30.22,9,3,0,0.00
2013-1-25,49,44,39,46,34,18,97,72,39,30.31,30.12,10,4,0,0.14
2013-1-26,53,43,33,38,34,31,95,75,51,30.37,30.23,5,2,0,0.01
2013-1-27,52,46,38,42,38,33,87,72,63,30.39,30.30,9,4,0,0.00
2013-1-28,65,56,48,55,47,37,89,74,63,30.34,30.17,11,6,0,0.00
2013-1-29,70,62,55,64,58,52,95,89,81,30.19,29.72,9,5,0,0.00
2013-1-30,71,56,39,66,52,27,97,86,63,29.95,29.55,19,8,0,1.62
2013-1-31,50,42,33,31,29,26,80,60,42,30.22,29.95,15,6,0,0.02